HISPASAT 36W-1

Last updated on Sat Jul 05 2025 00:02:46 GMT+0000 (Coordinated Universal Time)

1 41942U 17006A 25185.04697722 -.00000232 00000+0 00000+0 0 9998 2 41942 0.0142 270.1503 0000938 208.8835 144.1814 1.00267274 30736
UTC large
Height (km)
Speed (km/s)
/
Latitude / Longitude
Inclination (degrees)
Orbital Period (minutes)
Azimuth
Elevation
Range (km)
Doppler Factor

Next 0 passes for location: London (51.5072 / 0.1276)

Sorry there are no passes over London.